Donnes mto: Actuelle samedi, 30/05/2020 21:05
Date Horaire Temp. E. Hum. E. P.atmo. Pluie Vent Direction Direction Ensoleilleme Ev.Tr. Solaire P. de rose Temp au vent Rafales
30/05/2020 21:05 24,4 C 47 % 1011,9 hPa 0,0 mm 2,5 km/h (1 Bft) E-NE 70 0 min 0,000 mm 18 W/m 12,3 C 24,4 C 6,4 km/h (2 Bft)
30/05/2020 21:00 24,9 C 46 % 1011,8 hPa 0,0 mm 4,6 km/h (1 Bft) E 84 0 min 0,127 mm 19 W/m 12,5 C 24,9 C 11,3 km/h (2 Bft)
30/05/2020 20:55 25,2 C 42 % 1011,9 hPa 0,0 mm 5,9 km/h (2 Bft) N 4 0 min 0,000 mm 21 W/m 11,4 C 25,2 C 11,3 km/h (2 Bft)
30/05/2020 20:50 25,4 C 43 % 1011,9 hPa 0,0 mm 7,2 km/h (2 Bft) NE 56 0 min 0,000 mm 42 W/m 11,9 C 25,4 C 12,9 km/h (3 Bft)
30/05/2020 20:45 25,7 C 43 % 1011,8 hPa 0,0 mm 7,0 km/h (2 Bft) E 85 0 min 0,000 mm 42 W/m 12,2 C 25,7 C 12,9 km/h (3 Bft)
30/05/2020 20:40 25,9 C 44 % 1011,9 hPa 0,0 mm 4,6 km/h (1 Bft) E-NE 70 0 min 0,000 mm 69 W/m 12,7 C 25,9 C 9,7 km/h (2 Bft)
30/05/2020 20:35 26,0 C 43 % 1011,9 hPa 0,0 mm 0,3 km/h (0 Bft) NE 40 0 min 0,000 mm 79 W/m 12,4 C 26,0 C 6,4 km/h (2 Bft)
30/05/2020 20:30 26,2 C 42 % 1011,8 hPa 0,0 mm 2,1 km/h (1 Bft) E 80 0 min 0,000 mm 95 W/m 12,3 C 26,2 C 8,0 km/h (2 Bft)
30/05/2020 20:25 26,4 C 42 % 1011,9 hPa 0,0 mm 4,2 km/h (1 Bft) NE 55 0 min 0,000 mm 107 W/m 12,4 C 26,4 C 8,0 km/h (2 Bft)
30/05/2020 20:20 26,4 C 42 % 1011,8 hPa 0,0 mm 5,1 km/h (1 Bft) NE 53 5 min 0,000 mm 121 W/m 12,4 C 26,4 C 9,7 km/h (2 Bft)
30/05/2020 20:15 26,5 C 41 % 1011,8 hPa 0,0 mm 5,4 km/h (1 Bft) E-NE 75 5 min 0,000 mm 139 W/m 12,2 C 26,5 C 11,3 km/h (2 Bft)
30/05/2020 20:10 26,6 C 42 % 1011,8 hPa 0,0 mm 4,0 km/h (1 Bft) SE 127 5 min 0,000 mm 155 W/m 12,6 C 26,6 C 8,0 km/h (2 Bft)
30/05/2020 20:05 26,8 C 42 % 1011,8 hPa 0,0 mm 6,0 km/h (2 Bft) E 79 5 min 0,000 mm 171 W/m 12,8 C 26,8 C 9,7 km/h (2 Bft)
30/05/2020 20:00 27,0 C 39 % 1011,9 hPa 0,0 mm 2,6 km/h (1 Bft) E-NE 70 5 min 0,203 mm 186 W/m 11,8 C 27,0 C 6,4 km/h (2 Bft)
30/05/2020 19:55 27,1 C 39 % 1011,8 hPa 0,0 mm 3,5 km/h (1 Bft) E-NE 70 5 min 0,000 mm 202 W/m 11,9 C 27,1 C 8,0 km/h (2 Bft)
30/05/2020 19:50 27,2 C 39 % 1011,9 hPa 0,0 mm 4,5 km/h (1 Bft) E-NE 58 5 min 0,000 mm 218 W/m 12,0 C 27,2 C 8,0 km/h (2 Bft)
30/05/2020 19:45 27,1 C 39 % 1011,9 hPa 0,0 mm 7,3 km/h (2 Bft) NE 48 5 min 0,000 mm 234 W/m 11,9 C 27,1 C 11,3 km/h (2 Bft)
30/05/2020 19:40 27,2 C 40 % 1011,8 hPa 0,0 mm 8,1 km/h (2 Bft) E-NE 67 5 min 0,000 mm 218 W/m 12,4 C 27,2 C 11,3 km/h (2 Bft)
30/05/2020 19:35 27,4 C 40 % 1011,8 hPa 0,0 mm 6,2 km/h (2 Bft) E-NE 70 0 min 0,000 mm 132 W/m 12,6 C 27,4 C 11,3 km/h (2 Bft)
30/05/2020 19:30 27,5 C 40 % 1011,9 hPa 0,0 mm 2,5 km/h (1 Bft) NE 41 5 min 0,000 mm 278 W/m 12,7 C 27,5 C 12,9 km/h (3 Bft)
30/05/2020 19:25 27,5 C 40 % 1011,8 hPa 0,0 mm 4,4 km/h (1 Bft) NE 42 5 min 0,000 mm 251 W/m 12,7 C 27,5 C 8,0 km/h (2 Bft)
30/05/2020 19:20 27,4 C 39 % 1012,0 hPa 0,0 mm 4,3 km/h (1 Bft) NE 46 5 min 0,000 mm 244 W/m 12,2 C 27,4 C 9,7 km/h (2 Bft)
30/05/2020 19:15 27,4 C 41 % 1012,0 hPa 0,0 mm 7,2 km/h (2 Bft) E-NE 59 5 min 0,000 mm 322 W/m 13,0 C 27,4 C 14,5 km/h (3 Bft)
30/05/2020 19:10 27,4 C 41 % 1012,0 hPa 0,0 mm 1,6 km/h (1 Bft) E-NE 63 0 min 0,000 mm 158 W/m 13,0 C 27,4 C 9,7 km/h (2 Bft)
30/05/2020 19:05 27,3 C 39 % 1012,1 hPa 0,0 mm 4,0 km/h (1 Bft) N 4 0 min 0,000 mm 76 W/m 12,1 C 27,3 C 8,0 km/h (2 Bft)
30/05/2020 19:00 27,3 C 39 % 1012,1 hPa 0,0 mm 6,4 km/h (2 Bft) N-NE 19 5 min 0,203 mm 271 W/m 12,1 C 27,3 C 11,3 km/h (2 Bft)
30/05/2020 18:55 27,4 C 40 % 1012,1 hPa 0,0 mm 5,9 km/h (2 Bft) NE 35 0 min 0,000 mm 148 W/m 12,6 C 27,4 C 12,9 km/h (3 Bft)
30/05/2020 18:50 27,4 C 43 % 1012,1 hPa 0,0 mm 3,5 km/h (1 Bft) E 90 5 min 0,000 mm 396 W/m 13,7 C 27,4 C 11,3 km/h (2 Bft)
30/05/2020 18:45 27,3 C 42 % 1012,2 hPa 0,0 mm 5,4 km/h (1 Bft) E 82 0 min 0,000 mm 193 W/m 13,2 C 27,3 C 11,3 km/h (2 Bft)
30/05/2020 18:40 27,2 C 43 % 1012,2 hPa 0,0 mm 4,9 km/h (1 Bft) NE 50 0 min 0,000 mm 67 W/m 13,5 C 27,2 C 11,3 km/h (2 Bft)
30/05/2020 18:35 27,2 C 41 % 1012,2 hPa 0,0 mm 5,6 km/h (1 Bft) NE 49 0 min 0,000 mm 62 W/m 12,8 C 27,2 C 11,3 km/h (2 Bft)
30/05/2020 18:30 27,3 C 40 % 1012,2 hPa 0,0 mm 7,4 km/h (2 Bft) E 88 0 min 0,000 mm 60 W/m 12,5 C 27,3 C 12,9 km/h (3 Bft)
30/05/2020 18:25 27,4 C 40 % 1012,2 hPa 0,0 mm 6,9 km/h (2 Bft) NE 51 0 min 0,000 mm 58 W/m 12,6 C 27,4 C 11,3 km/h (2 Bft)
30/05/2020 18:20 27,4 C 41 % 1012,2 hPa 0,0 mm 9,1 km/h (2 Bft) N-NE 32 0 min 0,000 mm 72 W/m 13,0 C 27,4 C 14,5 km/h (3 Bft)
30/05/2020 18:15 27,7 C 42 % 1012,2 hPa 0,0 mm 9,6 km/h (2 Bft) E-NE 77 0 min 0,000 mm 142 W/m 13,6 C 27,7 C 16,1 km/h (3 Bft)
30/05/2020 18:10 27,8 C 42 % 1012,3 hPa 0,0 mm 2,8 km/h (1 Bft) N-NE 26 5 min 0,000 mm 348 W/m 13,7 C 27,8 C 20,9 km/h (4 Bft)
30/05/2020 18:05 27,8 C 40 % 1012,3 hPa 0,0 mm 2,1 km/h (1 Bft) SO 223 5 min 0,000 mm 367 W/m 12,9 C 27,8 C 8,0 km/h (2 Bft)
30/05/2020 18:00 27,9 C 41 % 1012,4 hPa 0,0 mm 3,3 km/h (1 Bft) NE 45 5 min 0,457 mm 547 W/m 13,4 C 27,9 C 9,7 km/h (2 Bft)
30/05/2020 17:55 28,2 C 39 % 1012,4 hPa 0,0 mm 4,3 km/h (1 Bft) N-NE 33 5 min 0,000 mm 566 W/m 12,9 C 28,2 C 9,7 km/h (2 Bft)
30/05/2020 17:50 28,4 C 38 % 1012,4 hPa 0,0 mm 6,9 km/h (2 Bft) N-NE 29 5 min 0,000 mm 584 W/m 12,7 C 28,4 C 12,9 km/h (3 Bft)
30/05/2020 17:45 28,3 C 38 % 1012,4 hPa 0,0 mm 3,5 km/h (1 Bft) N-NE 23 5 min 0,000 mm 599 W/m 12,6 C 28,3 C 9,7 km/h (2 Bft)
30/05/2020 17:40 28,3 C 40 % 1012,4 hPa 0,0 mm 3,4 km/h (1 Bft) N 4 5 min 0,000 mm 613 W/m 13,4 C 28,3 C 9,7 km/h (2 Bft)
30/05/2020 17:35 28,2 C 37 % 1012,5 hPa 0,0 mm 4,0 km/h (1 Bft) E-NE 58 5 min 0,000 mm 638 W/m 12,1 C 28,2 C 8,0 km/h (2 Bft)
30/05/2020 17:30 28,1 C 43 % 1012,5 hPa 0,0 mm 7,4 km/h (2 Bft) N-NE 25 5 min 0,000 mm 522 W/m 14,3 C 28,1 C 11,3 km/h (2 Bft)
30/05/2020 17:25 28,3 C 41 % 1012,5 hPa 0,0 mm 6,0 km/h (2 Bft) E 80 5 min 0,000 mm 656 W/m 13,8 C 28,3 C 12,9 km/h (3 Bft)
30/05/2020 17:20 28,1 C 42 % 1012,5 hPa 0,0 mm 6,2 km/h (2 Bft) NE 39 5 min 0,000 mm 673 W/m 14,0 C 28,1 C 12,9 km/h (3 Bft)
30/05/2020 17:15 28,1 C 41 % 1012,5 hPa 0,0 mm 5,4 km/h (1 Bft) E 80 5 min 0,000 mm 679 W/m 13,6 C 28,1 C 14,5 km/h (3 Bft)
30/05/2020 17:10 27,7 C 42 % 1012,5 hPa 0,0 mm 2,4 km/h (1 Bft) S-SE 164 5 min 0,000 mm 693 W/m 13,6 C 27,7 C 8,0 km/h (2 Bft)
30/05/2020 17:05 27,6 C 41 % 1012,6 hPa 0,0 mm 2,7 km/h (1 Bft) O 278 5 min 0,000 mm 679 W/m 13,1 C 27,6 C 8,0 km/h (2 Bft)
30/05/2020 17:00 27,1 C 46 % 1012,6 hPa 0,0 mm 2,2 km/h (1 Bft) N-NO 340 0 min 0,432 mm 114 W/m 14,5 C 27,1 C 8,0 km/h (2 Bft)
30/05/2020 16:55 26,9 C 45 % 1012,6 hPa 0,0 mm 7,7 km/h (2 Bft) E 93 5 min 0,000 mm 751 W/m 13,9 C 26,9 C 12,9 km/h (3 Bft)
30/05/2020 16:50 26,3 C 45 % 1012,7 hPa 0,0 mm 6,9 km/h (2 Bft) E 81 0 min 0,000 mm 135 W/m 13,4 C 26,3 C 14,5 km/h (3 Bft)
30/05/2020 16:45 26,8 C 43 % 1012,8 hPa 0,0 mm 5,8 km/h (2 Bft) E-NE 73 0 min 0,000 mm 102 W/m 13,2 C 26,8 C 11,3 km/h (2 Bft)
30/05/2020 16:40 28,2 C 40 % 1012,8 hPa 0,0 mm 6,0 km/h (2 Bft) NE 35 0 min 0,000 mm 118 W/m 13,3 C 28,2 C 12,9 km/h (3 Bft)
30/05/2020 16:35 28,6 C 40 % 1012,7 hPa 0,0 mm 6,0 km/h (2 Bft) N-NE 15 5 min 0,000 mm 826 W/m 13,7 C 28,6 C 12,9 km/h (3 Bft)
30/05/2020 16:30 28,6 C 40 % 1012,8 hPa 0,0 mm 2,0 km/h (1 Bft) NE 39 5 min 0,000 mm 796 W/m 13,7 C 28,6 C 9,7 km/h (2 Bft)
30/05/2020 16:25 28,6 C 41 % 1012,9 hPa 0,0 mm 3,4 km/h (1 Bft) S-SE 147 5 min 0,000 mm 810 W/m 14,0 C 28,6 C 9,7 km/h (2 Bft)
30/05/2020 16:20 28,1 C 43 % 1012,9 hPa 0,0 mm 5,9 km/h (2 Bft) NE 39 5 min 0,000 mm 838 W/m 14,3 C 28,1 C 11,3 km/h (2 Bft)
30/05/2020 16:15 28,3 C 42 % 1013,0 hPa 0,0 mm 6,5 km/h (2 Bft) N-NE 14 5 min 0,000 mm 854 W/m 14,1 C 28,3 C 12,9 km/h (3 Bft)
30/05/2020 16:10 27,9 C 46 % 1012,9 hPa 0,0 mm 6,8 km/h (2 Bft) NE 45 5 min 0,000 mm 891 W/m 15,2 C 27,9 C 16,1 km/h (3 Bft)
30/05/2020 16:05 27,1 C 45 % 1013,0 hPa 0,0 mm 3,6 km/h (1 Bft) N-NO 336 5 min 0,000 mm 896 W/m 14,1 C 27,1 C 8,0 km/h (2 Bft)
30/05/2020 16:00 27,0 C 42 % 1013,0 hPa 0,0 mm 3,7 km/h (1 Bft) O-NO 290 0 min 0,533 mm 195 W/m 13,0 C 27,0 C 8,0 km/h (2 Bft)
30/05/2020 15:55 27,4 C 44 % 1013,1 hPa 0,0 mm 6,0 km/h (2 Bft) N 4 0 min 0,000 mm 193 W/m 14,0 C 27,4 C 14,5 km/h (3 Bft)
30/05/2020 15:50 27,3 C 47 % 1013,1 hPa 0,0 mm 1,8 km/h (1 Bft) E-NE 67 5 min 0,000 mm 884 W/m 15,0 C 27,3 C 6,4 km/h (2 Bft)
30/05/2020 15:45 27,6 C 43 % 1013,2 hPa 0,0 mm 4,6 km/h (1 Bft) E-NE 66 0 min 0,000 mm 197 W/m 13,9 C 27,6 C 9,7 km/h (2 Bft)
30/05/2020 15:40 27,6 C 45 % 1013,2 hPa 0,0 mm 6,5 km/h (2 Bft) NE 54 5 min 0,000 mm 888 W/m 14,6 C 27,6 C 12,9 km/h (3 Bft)
30/05/2020 15:35 28,1 C 47 % 1013,2 hPa 0,0 mm 1,9 km/h (1 Bft) N 359 5 min 0,000 mm 895 W/m 15,7 C 28,1 C 9,7 km/h (2 Bft)
30/05/2020 15:30 27,7 C 46 % 1013,3 hPa 0,0 mm 3,9 km/h (1 Bft) NE 39 5 min 0,000 mm 898 W/m 15,0 C 27,7 C 9,7 km/h (2 Bft)
30/05/2020 15:25 27,5 C 49 % 1013,3 hPa 0,0 mm 5,5 km/h (1 Bft) E 86 5 min 0,000 mm 914 W/m 15,8 C 27,5 C 12,9 km/h (3 Bft)
30/05/2020 15:20 27,5 C 47 % 1013,3 hPa 0,0 mm 2,7 km/h (1 Bft) N-NE 19 5 min 0,000 mm 914 W/m 15,2 C 27,5 C 8,0 km/h (2 Bft)
30/05/2020 15:15 27,3 C 50 % 1013,4 hPa 0,0 mm 1,8 km/h (1 Bft) NE 45 5 min 0,000 mm 900 W/m 15,9 C 27,3 C 6,4 km/h (2 Bft)
30/05/2020 15:10 26,9 C 47 % 1013,4 hPa 0,0 mm 4,1 km/h (1 Bft) O-SO 251 5 min 0,000 mm 895 W/m 14,6 C 26,9 C 11,3 km/h (2 Bft)
30/05/2020 15:05 26,7 C 45 % 1013,5 hPa 0,0 mm 3,8 km/h (1 Bft) NO 305 5 min 0,000 mm 900 W/m 13,8 C 26,7 C 8,0 km/h (2 Bft)
30/05/2020 15:00 27,2 C 51 % 1013,6 hPa 0,0 mm 2,3 km/h (1 Bft) SE 139 5 min 0,635 mm 909 W/m 16,2 C 27,2 C 8,0 km/h (2 Bft)
30/05/2020 14:55 27,0 C 42 % 1013,6 hPa 0,0 mm 5,7 km/h (1 Bft) E 80 5 min 0,000 mm 909 W/m 13,0 C 27,0 C 12,9 km/h (3 Bft)
30/05/2020 14:50 27,3 C 44 % 1013,6 hPa 0,0 mm 5,9 km/h (2 Bft) E-SE 109 5 min 0,000 mm 907 W/m 14,0 C 27,3 C 9,7 km/h (2 Bft)
30/05/2020 14:45 27,0 C 46 % 1013,7 hPa 0,0 mm 5,5 km/h (1 Bft) NE 48 5 min 0,000 mm 921 W/m 14,4 C 27,0 C 11,3 km/h (2 Bft)
30/05/2020 14:40 27,3 C 47 % 1013,7 hPa 0,0 mm 4,3 km/h (1 Bft) E-NE 62 5 min 0,000 mm 925 W/m 15,0 C 27,3 C 11,3 km/h (2 Bft)
30/05/2020 14:35 26,9 C 52 % 1013,7 hPa 0,0 mm 3,7 km/h (1 Bft) E-SE 115 5 min 0,000 mm 949 W/m 16,2 C 26,9 C 11,3 km/h (2 Bft)
30/05/2020 14:30 26,8 C 49 % 1013,7 hPa 0,0 mm 3,7 km/h (1 Bft) E-SE 112 5 min 0,000 mm 912 W/m 15,2 C 26,8 C 8,0 km/h (2 Bft)
30/05/2020 14:25 26,9 C 49 % 1013,7 hPa 0,0 mm 6,2 km/h (2 Bft) SE 145 5 min 0,000 mm 916 W/m 15,3 C 26,9 C 12,9 km/h (3 Bft)
30/05/2020 14:20 27,0 C 49 % 1013,7 hPa 0,0 mm 4,7 km/h (1 Bft) E 95 5 min 0,000 mm 919 W/m 15,4 C 27,0 C 11,3 km/h (2 Bft)
30/05/2020 14:15 26,8 C 49 % 1013,8 hPa 0,0 mm 4,5 km/h (1 Bft) S-SO 201 5 min 0,000 mm 919 W/m 15,2 C 26,8 C 12,9 km/h (3 Bft)
30/05/2020 14:10 26,8 C 51 % 1013,9 hPa 0,0 mm 2,7 km/h (1 Bft) S-SO 196 5 min 0,000 mm 919 W/m 15,8 C 26,8 C 9,7 km/h (2 Bft)
30/05/2020 14:05 26,5 C 50 % 1013,9 hPa 0,0 mm 3,5 km/h (1 Bft) E 93 5 min 0,000 mm 923 W/m 15,2 C 26,5 C 11,3 km/h (2 Bft)
30/05/2020 14:00 26,7 C 51 % 1014,0 hPa 0,0 mm 4,3 km/h (1 Bft) E 91 5 min 0,610 mm 921 W/m 15,7 C 26,7 C 9,7 km/h (2 Bft)
30/05/2020 13:55 26,6 C 54 % 1014,0 hPa 0,0 mm 3,9 km/h (1 Bft) SO 233 5 min 0,000 mm 919 W/m 16,5 C 26,6 C 9,7 km/h (2 Bft)
30/05/2020 13:50 26,2 C 52 % 1014,0 hPa 0,0 mm 5,5 km/h (1 Bft) S 170 5 min 0,000 mm 919 W/m 15,6 C 26,2 C 16,1 km/h (3 Bft)
30/05/2020 13:45 26,1 C 57 % 1014,1 hPa 0,0 mm 4,8 km/h (1 Bft) NE 36 5 min 0,000 mm 919 W/m 16,9 C 26,1 C 11,3 km/h (2 Bft)
30/05/2020 13:40 25,9 C 51 % 1014,1 hPa 0,0 mm 6,1 km/h (2 Bft) E-NE 72 5 min 0,000 mm 918 W/m 15,0 C 25,9 C 11,3 km/h (2 Bft)
30/05/2020 13:35 25,8 C 51 % 1014,2 hPa 0,0 mm 5,5 km/h (1 Bft) SO 217 5 min 0,000 mm 914 W/m 14,9 C 25,8 C 11,3 km/h (2 Bft)
30/05/2020 13:30 25,8 C 52 % 1014,2 hPa 0,0 mm 3,3 km/h (1 Bft) E 99 5 min 0,000 mm 914 W/m 15,2 C 25,8 C 11,3 km/h (2 Bft)
30/05/2020 13:25 25,8 C 50 % 1014,2 hPa 0,0 mm 3,9 km/h (1 Bft) E-SE 107 5 min 0,000 mm 911 W/m 14,6 C 25,8 C 11,3 km/h (2 Bft)
30/05/2020 13:20 26,1 C 55 % 1014,3 hPa 0,0 mm 4,2 km/h (1 Bft) E-NE 75 5 min 0,000 mm 909 W/m 16,3 C 26,1 C 12,9 km/h (3 Bft)
30/05/2020 13:15 25,9 C 57 % 1014,4 hPa 0,0 mm 3,0 km/h (1 Bft) E-NE 61 5 min 0,000 mm 900 W/m 16,7 C 25,9 C 9,7 km/h (2 Bft)
30/05/2020 13:10 25,8 C 55 % 1014,4 hPa 0,0 mm 4,7 km/h (1 Bft) N-NE 23 5 min 0,000 mm 896 W/m 16,1 C 25,8 C 12,9 km/h (3 Bft)
30/05/2020 13:05 25,4 C 54 % 1014,5 hPa 0,0 mm 3,3 km/h (1 Bft) S 183 5 min 0,000 mm 895 W/m 15,4 C 25,4 C 8,0 km/h (2 Bft)
30/05/2020 13:00 24,9 C 54 % 1014,6 hPa 0,0 mm 3,6 km/h (1 Bft) E-SE 118 5 min 0,559 mm 891 W/m 14,9 C 24,9 C 9,7 km/h (2 Bft)
30/05/2020 12:55 24,9 C 55 % 1014,6 hPa 0,0 mm 3,0 km/h (1 Bft) S-SE 160 5 min 0,000 mm 886 W/m 15,2 C 24,9 C 8,0 km/h (2 Bft)
30/05/2020 12:50 24,9 C 52 % 1014,7 hPa 0,0 mm 5,4 km/h (1 Bft) S-SE 149 5 min 0,000 mm 879 W/m 14,4 C 24,9 C 11,3 km/h (2 Bft)
30/05/2020 12:45 25,1 C 54 % 1014,7 hPa 0,0 mm 6,6 km/h (2 Bft) E-NE 58 5 min 0,000 mm 875 W/m 15,1 C 25,1 C 11,3 km/h (2 Bft)
30/05/2020 12:40 24,8 C 58 % 1014,8 hPa 0,0 mm 3,4 km/h (1 Bft) E-NE 64 5 min 0,000 mm 867 W/m 16,0 C 24,8 C 11,3 km/h (2 Bft)
30/05/2020 12:35 24,0 C 63 % 1014,8 hPa 0,0 mm 2,4 km/h (1 Bft) S-SO 198 5 min 0,000 mm 863 W/m 16,5 C 24,0 C 8,0 km/h (2 Bft)
30/05/2020 12:30 24,1 C 57 % 1014,9 hPa 0,0 mm 3,7 km/h (1 Bft) S-SO 212 5 min 0,000 mm 858 W/m 15,0 C 24,1 C 8,0 km/h (2 Bft)
30/05/2020 12:25 24,4 C 55 % 1014,9 hPa 0,0 mm 4,3 km/h (1 Bft) E 80 5 min 0,000 mm 853 W/m 14,8 C 24,4 C 11,3 km/h (2 Bft)
30/05/2020 12:20 24,3 C 59 % 1015,0 hPa 0,0 mm 3,0 km/h (1 Bft) S-SE 162 5 min 0,000 mm 842 W/m 15,8 C 24,3 C 9,7 km/h (2 Bft)
30/05/2020 12:15 24,3 C 61 % 1015,0 hPa 0,0 mm 5,4 km/h (1 Bft) E-NE 65 5 min 0,000 mm 837 W/m 16,3 C 24,3 C 9,7 km/h (2 Bft)
30/05/2020 12:10 23,9 C 57 % 1015,1 hPa 0,0 mm 5,4 km/h (1 Bft) NE 50 5 min 0,000 mm 828 W/m 14,9 C 23,9 C 11,3 km/h (2 Bft)
30/05/2020 12:05 23,6 C 58 % 1015,0 hPa 0,0 mm 1,4 km/h (1 Bft) N 9 5 min 0,000 mm 821 W/m 14,8 C 23,6 C 6,4 km/h (2 Bft)
30/05/2020 12:00 23,8 C 56 % 1015,1 hPa 0,0 mm 5,3 km/h (1 Bft) E-NE 64 5 min 0,432 mm 814 W/m 14,5 C 23,8 C 11,3 km/h (2 Bft)
30/05/2020 11:55 23,7 C 59 % 1015,1 hPa 0,0 mm 1,4 km/h (1 Bft) E-SE 109 5 min 0,000 mm 805 W/m 15,2 C 23,7 C 9,7 km/h (2 Bft)
30/05/2020 11:50 23,7 C 59 % 1015,2 hPa 0,0 mm 5,0 km/h (1 Bft) E-NE 73 5 min 0,000 mm 796 W/m 15,2 C 23,7 C 11,3 km/h (2 Bft)
30/05/2020 11:45 23,6 C 59 % 1015,2 hPa 0,0 mm 1,5 km/h (1 Bft) SE 143 5 min 0,000 mm 786 W/m 15,1 C 23,6 C 8,0 km/h (2 Bft)
30/05/2020 11:40 23,6 C 62 % 1015,2 hPa 0,0 mm 4,9 km/h (1 Bft) E-NE 74 5 min 0,000 mm 777 W/m 15,9 C 23,6 C 9,7 km/h (2 Bft)
30/05/2020 11:35 23,7 C 61 % 1015,2 hPa 0,0 mm 2,5 km/h (1 Bft) E 85 5 min 0,000 mm 758 W/m 15,7 C 23,7 C 8,0 km/h (2 Bft)
30/05/2020 11:30 23,4 C 58 % 1015,3 hPa 0,0 mm 3,4 km/h (1 Bft) E-SE 106 5 min 0,000 mm 719 W/m 14,7 C 23,4 C 9,7 km/h (2 Bft)
30/05/2020 11:25 23,4 C 60 % 1015,3 hPa 0,0 mm 0,8 km/h (0 Bft) SE 126 5 min 0,000 mm 652 W/m 15,2 C 23,4 C 3,2 km/h (1 Bft)
30/05/2020 11:20 23,1 C 63 % 1015,3 hPa 0,0 mm 2,2 km/h (1 Bft) SO 214 5 min 0,000 mm 612 W/m 15,7 C 23,1 C 6,4 km/h (2 Bft)
30/05/2020 11:15 23,2 C 62 % 1015,3 hPa 0,0 mm 4,4 km/h (1 Bft) E-NE 75 5 min 0,000 mm 578 W/m 15,5 C 23,2 C 9,7 km/h (2 Bft)
30/05/2020 11:10 23,1 C 60 % 1015,3 hPa 0,0 mm 4,5 km/h (1 Bft) S-SO 195 5 min 0,000 mm 557 W/m 14,9 C 23,1 C 12,9 km/h (3 Bft)
30/05/2020 11:05 23,2 C 59 % 1015,3 hPa 0,0 mm 1,8 km/h (1 Bft) S 187 5 min 0,000 mm 554 W/m 14,7 C 23,2 C 9,7 km/h (2 Bft)
30/05/2020 11:00 22,8 C 60 % 1015,3 hPa 0,0 mm 0,0 km/h (0 Bft) E-NE 78 5 min 0,381 mm 564 W/m 14,6 C 22,8 C 0,0 km/h (0 Bft)
30/05/2020 10:55 22,6 C 62 % 1015,4 hPa 0,0 mm 2,2 km/h (1 Bft) E-NE 57 5 min 0,000 mm 589 W/m 14,9 C 22,6 C 8,0 km/h (2 Bft)
30/05/2020 10:50 22,4 C 63 % 1015,5 hPa 0,0 mm 3,1 km/h (1 Bft) S-SO 197 5 min 0,000 mm 606 W/m 15,0 C 22,4 C 9,7 km/h (2 Bft)
30/05/2020 10:45 22,6 C 60 % 1015,5 hPa 0,0 mm 4,9 km/h (1 Bft) S-SE 168 5 min 0,000 mm 621 W/m 14,4 C 22,6 C 12,9 km/h (3 Bft)
30/05/2020 10:40 22,2 C 64 % 1015,5 hPa 0,0 mm 4,9 km/h (1 Bft) S 180 5 min 0,000 mm 626 W/m 15,1 C 22,2 C 14,5 km/h (3 Bft)
30/05/2020 10:35 21,8 C 61 % 1015,5 hPa 0,0 mm 4,5 km/h (1 Bft) E 83 5 min 0,000 mm 628 W/m 13,9 C 21,8 C 14,5 km/h (3 Bft)
30/05/2020 10:30 21,6 C 62 % 1015,5 hPa 0,0 mm 9,4 km/h (2 Bft) E 90 5 min 0,000 mm 619 W/m 14,0 C 21,6 C 16,1 km/h (3 Bft)
30/05/2020 10:25 21,7 C 63 % 1015,5 hPa 0,0 mm 6,0 km/h (2 Bft) E-SE 120 5 min 0,000 mm 606 W/m 14,3 C 21,7 C 11,3 km/h (2 Bft)
30/05/2020 10:20 21,3 C 63 % 1015,5 hPa 0,0 mm 8,7 km/h (2 Bft) SE 139 5 min 0,000 mm 592 W/m 14,0 C 21,3 C 17,7 km/h (3 Bft)
30/05/2020 10:15 21,3 C 62 % 1015,6 hPa 0,0 mm 6,2 km/h (2 Bft) NE 41 5 min 0,000 mm 578 W/m 13,7 C 21,3 C 12,9 km/h (3 Bft)
30/05/2020 10:10 21,2 C 66 % 1015,6 hPa 0,0 mm 3,5 km/h (1 Bft) E 81 5 min 0,000 mm 566 W/m 14,6 C 21,2 C 9,7 km/h (2 Bft)
30/05/2020 10:05 20,7 C 65 % 1015,6 hPa 0,0 mm 6,5 km/h (2 Bft) E-NE 78 5 min 0,000 mm 554 W/m 13,9 C 20,7 C 12,9 km/h (3 Bft)
30/05/2020 10:00 20,5 C 64 % 1015,7 hPa 0,0 mm 7,8 km/h (2 Bft) E 93 5 min 0,279 mm 540 W/m 13,5 C 20,5 C 12,9 km/h (3 Bft)
30/05/2020 09:55 20,6 C 65 % 1015,7 hPa 0,0 mm 7,8 km/h (2 Bft) NE 51 5 min 0,000 mm 526 W/m 13,8 C 20,6 C 12,9 km/h (3 Bft)
30/05/2020 09:50 20,6 C 64 % 1015,8 hPa 0,0 mm 8,6 km/h (2 Bft) E-SE 110 5 min 0,000 mm 510 W/m 13,5 C 20,6 C 14,5 km/h (3 Bft)
30/05/2020 09:45 20,3 C 65 % 1015,7 hPa 0,0 mm 1,6 km/h (1 Bft) NE 46 5 min 0,000 mm 496 W/m 13,5 C 20,3 C 9,7 km/h (2 Bft)
30/05/2020 09:40 20,0 C 65 % 1015,8 hPa 0,0 mm 7,9 km/h (2 Bft) E 95 5 min 0,000 mm 482 W/m 13,2 C 20,0 C 12,9 km/h (3 Bft)
30/05/2020 09:35 19,8 C 66 % 1015,8 hPa 0,0 mm 8,2 km/h (2 Bft) E 84 5 min 0,000 mm 469 W/m 13,3 C 19,8 C 16,1 km/h (3 Bft)
30/05/2020 09:30 19,8 C 66 % 1015,8 hPa 0,0 mm 8,4 km/h (2 Bft) E 79 5 min 0,000 mm 455 W/m 13,3 C 19,8 C 16,1 km/h (3 Bft)
30/05/2020 09:25 19,5 C 67 % 1015,7 hPa 0,0 mm 4,8 km/h (1 Bft) E 83 5 min 0,000 mm 439 W/m 13,2 C 19,5 C 12,9 km/h (3 Bft)
30/05/2020 09:20 19,2 C 67 % 1015,7 hPa 0,0 mm 9,2 km/h (2 Bft) E-NE 70 5 min 0,000 mm 424 W/m 12,9 C 19,2 C 16,1 km/h (3 Bft)
30/05/2020 09:15 19,2 C 68 % 1015,7 hPa 0,0 mm 7,9 km/h (2 Bft) S 179 5 min 0,000 mm 408 W/m 13,1 C 19,2 C 14,5 km/h (3 Bft)
30/05/2020 09:10 19,1 C 68 % 1015,6 hPa 0,0 mm 5,4 km/h (1 Bft) E-NE 68 5 min 0,000 mm 394 W/m 13,1 C 19,1 C 11,3 km/h (2 Bft)
30/05/2020 09:05 18,7 C 70 % 1015,6 hPa 0,0 mm 4,6 km/h (1 Bft) E-NE 60 5 min 0,000 mm 381 W/m 13,1 C 18,7 C 14,5 km/h (3 Bft)
30/05/2020 09:00 18,1 C 72 % 1015,6 hPa 0,0 mm 4,7 km/h (1 Bft) E 81 5 min 0,152 mm 366 W/m 13,0 C 18,1 C 9,7 km/h (2 Bft)
30/05/2020 08:55 17,5 C 70 % 1015,7 hPa 0,0 mm 2,3 km/h (1 Bft) E-NE 61 5 min 0,000 mm 350 W/m 12,0 C 17,5 C 8,0 km/h (2 Bft)
30/05/2020 08:50 16,8 C 72 % 1015,7 hPa 0,0 mm 3,8 km/h (1 Bft) E-NE 62 5 min 0,000 mm 334 W/m 11,7 C 16,8 C 8,0 km/h (2 Bft)
30/05/2020 08:45 16,4 C 72 % 1015,7 hPa 0,0 mm 5,7 km/h (1 Bft) E-NE 62 5 min 0,000 mm 320 W/m 11,3 C 16,4 C 8,0 km/h (2 Bft)
30/05/2020 08:40 16,1 C 73 % 1015,7 hPa 0,0 mm 6,8 km/h (2 Bft) N-NE 23 5 min 0,000 mm 304 W/m 11,3 C 16,1 C 9,7 km/h (2 Bft)
30/05/2020 08:35 15,8 C 73 % 1015,7 hPa 0,0 mm 5,3 km/h (1 Bft) NE 50 5 min 0,000 mm 290 W/m 11,0 C 15,8 C 9,7 km/h (2 Bft)
30/05/2020 08:30 15,5 C 73 % 1015,7 hPa 0,0 mm 5,1 km/h (1 Bft) E-NE 62 5 min 0,000 mm 278 W/m 10,7 C 15,5 C 9,7 km/h (2 Bft)
30/05/2020 08:25 15,3 C 73 % 1015,8 hPa 0,0 mm 3,1 km/h (1 Bft) E-NE 67 5 min 0,000 mm 262 W/m 10,5 C 15,3 C 8,0 km/h (2 Bft)
30/05/2020 08:20 15,0 C 74 % 1015,8 hPa 0,0 mm 5,0 km/h (1 Bft) E-NE 74 5 min 0,000 mm 246 W/m 10,4 C 15,0 C 8,0 km/h (2 Bft)
30/05/2020 08:15 14,6 C 74 % 1015,8 hPa 0,0 mm 5,5 km/h (1 Bft) NE 48 5 min 0,000 mm 232 W/m 10,0 C 14,6 C 8,0 km/h (2 Bft)
30/05/2020 08:10 14,6 C 74 % 1015,8 hPa 0,0 mm 5,7 km/h (1 Bft) E-NE 68 5 min 0,000 mm 218 W/m 10,0 C 14,6 C 9,7 km/h (2 Bft)
30/05/2020 08:05 14,3 C 75 % 1015,7 hPa 0,0 mm 5,1 km/h (1 Bft) E-NE 73 5 min 0,000 mm 202 W/m 9,9 C 14,3 C 9,7 km/h (2 Bft)
30/05/2020 08:00 14,1 C 76 % 1015,8 hPa 0,0 mm 5,0 km/h (1 Bft) E 80 5 min 0,051 mm 188 W/m 9,9 C 14,1 C 8,0 km/h (2 Bft)
30/05/2020 07:55 13,7 C 76 % 1015,8 hPa 0,0 mm 6,6 km/h (2 Bft) E-NE 70 5 min 0,000 mm 174 W/m 9,5 C 13,7 C 11,3 km/h (2 Bft)
30/05/2020 07:50 13,5 C 77 % 1015,8 hPa 0,0 mm 3,6 km/h (1 Bft) NE 43 5 min 0,000 mm 146 W/m 9,5 C 13,5 C 8,0 km/h (2 Bft)
30/05/2020 07:45 13,2 C 77 % 1015,7 hPa 0,0 mm 1,7 km/h (1 Bft) E-NE 69 0 min 0,000 mm 121 W/m 9,3 C 13,2 C 8,0 km/h (2 Bft)
30/05/2020 07:40 12,9 C 78 % 1015,7 hPa 0,0 mm 5,1 km/h (1 Bft) NE 40 0 min 0,000 mm 111 W/m 9,2 C 12,9 C 8,0 km/h (2 Bft)
30/05/2020 07:35 12,6 C 78 % 1015,6 hPa 0,0 mm 5,4 km/h (1 Bft) E 83 0 min 0,000 mm 107 W/m 8,9 C 12,6 C 8,0 km/h (2 Bft)
30/05/2020 07:30 12,4 C 78 % 1015,7 hPa 0,0 mm 6,3 km/h (2 Bft) E-NE 73 0 min 0,000 mm 97 W/m 8,7 C 12,4 C 9,7 km/h (2 Bft)
30/05/2020 07:25 12,1 C 79 % 1015,7 hPa 0,0 mm 3,6 km/h (1 Bft) E 83 0 min 0,000 mm 83 W/m 8,6 C 12,1 C 8,0 km/h (2 Bft)
30/05/2020 07:20 11,9 C 79 % 1015,7 hPa 0,0 mm 4,8 km/h (1 Bft) E 80 0 min 0,000 mm 72 W/m 8,4 C 11,9 C 8,0 km/h (2 Bft)
30/05/2020 07:15 11,6 C 80 % 1015,6 hPa 0,0 mm 2,4 km/h (1 Bft) E 84 0 min 0,000 mm 62 W/m 8,3 C 11,6 C 8,0 km/h (2 Bft)
30/05/2020 07:10 11,2 C 81 % 1015,6 hPa 0,0 mm 3,9 km/h (1 Bft) E 86 0 min 0,000 mm 51 W/m 8,1 C 11,2 C 8,0 km/h (2 Bft)
30/05/2020 07:05 10,9 C 81 % 1015,5 hPa 0,0 mm 2,4 km/h (1 Bft) E-NE 63 0 min 0,000 mm 42 W/m 7,8 C 10,9 C 8,0 km/h (2 Bft)
30/05/2020 07:00 10,7 C 82 % 1015,5 hPa 0,0 mm 0,0 km/h (0 Bft) E 86 0 min 0,000 mm 33 W/m 7,8 C 10,7 C 0,0 km/h (0 Bft)
30/05/2020 06:55 10,5 C 82 % 1015,4 hPa 0,0 mm 0,0 km/h (0 Bft) E 86 0 min 0,000 mm 21 W/m 7,6 C 10,5 C 0,0 km/h (0 Bft)
30/05/2020 06:50 10,2 C 83 % 1015,4 hPa 0,0 mm 0,0 km/h (0 Bft) E 87 0 min 0,000 mm 19 W/m 7,4 C 10,2 C 0,0 km/h (0 Bft)
30/05/2020 06:45 9,7 C 84 % 1015,3 hPa 0,0 mm 0,0 km/h (0 Bft) E-NE 71 0 min 0,000 mm 18 W/m 7,1 C 9,7 C 0,0 km/h (0 Bft)
30/05/2020 06:40 9,6 C 84 % 1015,3 hPa 0,0 mm 0,0 km/h (0 Bft) E-NE 71 0 min 0,000 mm 14 W/m 7,0 C 9,6 C 0,0 km/h (0 Bft)
30/05/2020 06:35 9,5 C 84 % 1015,2 hPa 0,0 mm 0,0 km/h (0 Bft) E-NE 71 0 min 0,000 mm 12 W/m 6,9 C 9,5 C 0,0 km/h (0 Bft)
30/05/2020 06:30 9,5 C 83 % 1015,2 hPa 0,0 mm 0,0 km/h (0 Bft) E-NE 71 0 min 0,000 mm 11 W/m 6,8 C 9,5 C 0,0 km/h (0 Bft)
30/05/2020 06:25 9,6 C 83 % 1015,2 hPa 0,0 mm 0,0 km/h (0 Bft) E-NE 71 0 min 0,000 mm 7 W/m 6,9 C 9,6 C 0,0 km/h (0 Bft)
30/05/2020 06:20 9,7 C 83 % 1015,1 hPa 0,0 mm 0,0 km/h (0 Bft) E-NE 71 0 min 0,000 mm 5 W/m 7,0 C 9,7 C 0,0 km/h (0 Bft)
30/05/2020 06:15 9,7 C 83 % 1015,1 hPa 0,0 mm 0,0 km/h (0 Bft) E-NE 71 0 min 0,000 mm 0 W/m 7,0 C 9,7 C 0,0 km/h (0 Bft)
30/05/2020 06:10 9,7 C 82 % 1015,1 hPa 0,0 mm 0,0 km/h (0 Bft) E-NE 71 0 min 0,000 mm 0 W/m 6,8 C 9,7 C 0,0 km/h (0 Bft)
30/05/2020 06:05 9,7 C 82 % 1015,1 hPa 0,0 mm 0,0 km/h (0 Bft) E-NE 71 0 min 0,000 mm 0 W/m 6,8 C 9,7 C 0,0 km/h (0 Bft)
30/05/2020 06:00 9,8 C 82 % 1015,2 hPa 0,0 mm 0,0 km/h (0 Bft) E-NE 71 0 min 0,026 mm 0 W/m 6,9 C 9,8 C 0,0 km/h (0 Bft)
30/05/2020 05:55 9,8 C 81 % 1015,2 hPa 0,0 mm 0,0 km/h (0 Bft) E-NE 71 0 min 0,000 mm 0 W/m 6,7 C 9,8 C 0,0 km/h (0 Bft)
30/05/2020 05:50 9,9 C 80 % 1015,2 hPa 0,0 mm 0,0 km/h (0 Bft) E-NE 71 0 min 0,000 mm 0 W/m 6,6 C 9,9 C 0,0 km/h (0 Bft)
30/05/2020 05:45 10,0 C 80 % 1015,2 hPa 0,0 mm 0,0 km/h (0 Bft) E-NE 71 0 min 0,000 mm 0 W/m 6,7 C 10,0 C 0,0 km/h (0 Bft)
30/05/2020 05:40 10,1 C 80 % 1015,2 hPa 0,0 mm 0,0 km/h (0 Bft) E-NE 71 0 min 0,000 mm 0 W/m 6,8 C 10,1 C 0,0 km/h (0 Bft)
30/05/2020 05:35 10,2 C 79 % 1015,2 hPa 0,0 mm 0,0 km/h (0 Bft) E-NE 71 0 min 0,000 mm 0 W/m 6,7 C 10,2 C 0,0 km/h (0 Bft)
30/05/2020 05:30 10,3 C 79 % 1015,1 hPa 0,0 mm 0,0 km/h (0 Bft) E-NE 71 0 min 0,000 mm 0 W/m 6,8 C 10,3 C 0,0 km/h (0 Bft)
30/05/2020 05:25 10,4 C 77 % 1015,2 hPa 0,0 mm 0,0 km/h (0 Bft) E-NE 71 0 min 0,000 mm 0 W/m 6,5 C 10,4 C 0,0 km/h (0 Bft)
30/05/2020 05:20 10,4 C 77 % 1015,2 hPa 0,0 mm 0,0 km/h (0 Bft) E-NE 71 0 min 0,000 mm 0 W/m 6,5 C 10,4 C 0,0 km/h (0 Bft)
30/05/2020 05:15 10,5 C 76 % 1015,2 hPa 0,0 mm 0,0 km/h (0 Bft) E-NE 71 0 min 0,000 mm 0 W/m 6,5 C 10,5 C 0,0 km/h (0 Bft)
30/05/2020 05:10 10,7 C 76 % 1015,2 hPa 0,0 mm 0,0 km/h (0 Bft) E-NE 71 0 min 0,000 mm 0 W/m 6,6 C 10,7 C 0,0 km/h (0 Bft)
30/05/2020 05:05 10,8 C 75 % 1015,2 hPa 0,0 mm 0,0 km/h (0 Bft) E-NE 71 0 min 0,000 mm 0 W/m 6,5 C 10,8 C 0,0 km/h (0 Bft)
30/05/2020 05:00 10,9 C 76 % 1015,2 hPa 0,0 mm 0,0 km/h (0 Bft) E-NE 71 0 min 0,025 mm 0 W/m 6,8 C 10,9 C 0,0 km/h (0 Bft)
30/05/2020 04:55 11,1 C 75 % 1015,2 hPa 0,0 mm 0,0 km/h (0 Bft) E-NE 71 0 min 0,000 mm 0 W/m 6,8 C 11,1 C 0,0 km/h (0 Bft)
30/05/2020 04:50 11,2 C 75 % 1015,2 hPa 0,0 mm 0,0 km/h (0 Bft) E-NE 71 0 min 0,000 mm 0 W/m 6,9 C 11,2 C 0,0 km/h (0 Bft)
30/05/2020 04:45 11,3 C 75 % 1015,2 hPa 0,0 mm 0,0 km/h (0 Bft) E-NE 71 0 min 0,000 mm 0 W/m 7,0 C 11,3 C 0,0 km/h (0 Bft)
30/05/2020 04:40 11,3 C 74 % 1015,2 hPa 0,0 mm 0,0 km/h (0 Bft) E-NE 71 0 min 0,000 mm 0 W/m 6,8 C 11,3 C 0,0 km/h (0 Bft)
30/05/2020 04:35 11,3 C 74 % 1015,3 hPa 0,0 mm 0,0 km/h (0 Bft) E-NE 71 0 min 0,000 mm 0 W/m 6,8 C 11,3 C 0,0 km/h (0 Bft)
30/05/2020 04:30 11,4 C 73 % 1015,3 hPa 0,0 mm 0,0 km/h (0 Bft) E-NE 71 0 min 0,000 mm 0 W/m 6,7 C 11,4 C 0,0 km/h (0 Bft)
30/05/2020 04:25 11,5 C 72 % 1015,3 hPa 0,0 mm 0,0 km/h (0 Bft) E-NE 71 0 min 0,000 mm 0 W/m 6,6 C 11,5 C 0,0 km/h (0 Bft)
30/05/2020 04:20 11,7 C 72 % 1015,3 hPa 0,0 mm 0,0 km/h (0 Bft) E-NE 71 0 min 0,000 mm 0 W/m 6,8 C 11,7 C 0,0 km/h (0 Bft)
30/05/2020 04:15 11,8 C 71 % 1015,2 hPa 0,0 mm 0,0 km/h (0 Bft) E-NE 71 0 min 0,000 mm 0 W/m 6,7 C 11,8 C 0,0 km/h (0 Bft)
30/05/2020 04:10 11,9 C 70 % 1015,2 hPa 0,0 mm 0,0 km/h (0 Bft) E-NE 71 0 min 0,000 mm 0 W/m 6,6 C 11,9 C 0,0 km/h (0 Bft)
30/05/2020 04:05 12,0 C 71 % 1015,2 hPa 0,0 mm 0,0 km/h (0 Bft) E-NE 71 0 min 0,000 mm 0 W/m 6,9 C 12,0 C 0,0 km/h (0 Bft)
30/05/2020 04:00 12,1 C 70 % 1015,3 hPa 0,0 mm 0,0 km/h (0 Bft) E-NE 71 0 min 0,025 mm 0 W/m 6,8 C 12,1 C 0,0 km/h (0 Bft)
30/05/2020 03:55 12,2 C 69 % 1015,3 hPa 0,0 mm 0,0 km/h (0 Bft) E-NE 71 0 min 0,000 mm 0 W/m 6,7 C 12,2 C 0,0 km/h (0 Bft)
30/05/2020 03:50 12,2 C 69 % 1015,2 hPa 0,0 mm 0,0 km/h (0 Bft) E-NE 71 0 min 0,000 mm 0 W/m 6,7 C 12,2 C 0,0 km/h (0 Bft)
30/05/2020 03:45 12,2 C 69 % 1015,2 hPa 0,0 mm 0,0 km/h (0 Bft) E-NE 71 0 min 0,000 mm 0 W/m 6,7 C 12,2 C 0,0 km/h (0 Bft)
30/05/2020 03:40 12,1 C 70 % 1015,2 hPa 0,0 mm 0,0 km/h (0 Bft) E-NE 71 0 min 0,000 mm 0 W/m 6,8 C 12,1 C 0,0 km/h (0 Bft)
30/05/2020 03:35 12,0 C 70 % 1015,2 hPa 0,0 mm 0,0 km/h (0 Bft) E-NE 71 0 min 0,000 mm 0 W/m 6,7 C 12,0 C 0,0 km/h (0 Bft)
30/05/2020 03:30 11,9 C 70 % 1015,2 hPa 0,0 mm 0,0 km/h (0 Bft) E-NE 71 0 min 0,000 mm 0 W/m 6,6 C 11,9 C 0,0 km/h (0 Bft)
30/05/2020 03:25 11,9 C 70 % 1015,2 hPa 0,0 mm 0,0 km/h (0 Bft) E-NE 71 0 min 0,000 mm 0 W/m 6,6 C 11,9 C 0,0 km/h (0 Bft)
30/05/2020 03:20 12,1 C 70 % 1015,2 hPa 0,0 mm 0,0 km/h (0 Bft) E-NE 65 0 min 0,000 mm 0 W/m 6,8 C 12,1 C 0,0 km/h (0 Bft)
30/05/2020 03:15 12,2 C 71 % 1015,2 hPa 0,0 mm 0,0 km/h (0 Bft) E-NE 65 0 min 0,000 mm 0 W/m 7,1 C 12,2 C 0,0 km/h (0 Bft)
30/05/2020 03:10 12,4 C 70 % 1015,2 hPa 0,0 mm 0,0 km/h (0 Bft) E-NE 65 0 min 0,000 mm 0 W/m 7,1 C 12,4 C 0,0 km/h (0 Bft)
30/05/2020 03:05 12,7 C 68 % 1015,3 hPa 0,0 mm 0,0 km/h (0 Bft) E-NE 65 0 min 0,000 mm 0 W/m 6,9 C 12,7 C 0,0 km/h (0 Bft)
30/05/2020 03:00 13,0 C 67 % 1015,3 hPa 0,0 mm 0,0 km/h (0 Bft) E-NE 66 0 min 0,026 mm 0 W/m 7,0 C 13,0 C 0,0 km/h (0 Bft)
30/05/2020 02:55 13,3 C 65 % 1015,3 hPa 0,0 mm 0,0 km/h (0 Bft) E-NE 65 0 min 0,000 mm 0 W/m 6,9 C 13,3 C 0,0 km/h (0 Bft)
30/05/2020 02:50 13,6 C 64 % 1015,4 hPa 0,0 mm 0,0 km/h (0 Bft) E-NE 65 0 min 0,000 mm 0 W/m 6,9 C 13,6 C 0,0 km/h (0 Bft)
30/05/2020 02:45 13,7 C 63 % 1015,4 hPa 0,0 mm 1,2 km/h (1 Bft) E-NE 65 0 min 0,000 mm 0 W/m 6,8 C 13,7 C 4,8 km/h (1 Bft)
30/05/2020 02:40 13,9 C 62 % 1015,5 hPa 0,0 mm 3,7 km/h (1 Bft) E-NE 66 0 min 0,000 mm 0 W/m 6,7 C 13,9 C 8,0 km/h (2 Bft)
30/05/2020 02:35 13,9 C 62 % 1015,5 hPa 0,0 mm 2,6 km/h (1 Bft) E-NE 76 0 min 0,000 mm 0 W/m 6,7 C 13,9 C 8,0 km/h (2 Bft)
30/05/2020 02:30 13,9 C 62 % 1015,6 hPa 0,0 mm 0,0 km/h (0 Bft) E 83 0 min 0,000 mm 0 W/m 6,7 C 13,9 C 0,0 km/h (0 Bft)
30/05/2020 02:25 14,1 C 62 % 1015,5 hPa 0,0 mm 0,0 km/h (0 Bft) E 83 0 min 0,000 mm 0 W/m 6,9 C 14,1 C 0,0 km/h (0 Bft)
30/05/2020 02:20 14,0 C 62 % 1015,5 hPa 0,0 mm 0,0 km/h (0 Bft) E 83 0 min 0,000 mm 0 W/m 6,8 C 14,0 C 0,0 km/h (0 Bft)
30/05/2020 02:15 14,2 C 62 % 1015,5 hPa 0,0 mm 0,0 km/h (0 Bft) E 83 0 min 0,000 mm 0 W/m 7,0 C 14,2 C 0,0 km/h (0 Bft)
30/05/2020 02:10 14,0 C 61 % 1015,5 hPa 0,0 mm 0,0 km/h (0 Bft) E 83 0 min 0,000 mm 0 W/m 6,6 C 14,0 C 0,0 km/h (0 Bft)
30/05/2020 02:05 13,9 C 61 % 1015,5 hPa 0,0 mm 0,0 km/h (0 Bft) E 83 0 min 0,000 mm 0 W/m 6,5 C 13,9 C 0,0 km/h (0 Bft)
30/05/2020 02:00 13,9 C 62 % 1015,5 hPa 0,0 mm 0,0 km/h (0 Bft) E 83 0 min 0,025 mm 0 W/m 6,7 C 13,9 C 0,0 km/h (0 Bft)
30/05/2020 01:55 13,8 C 61 % 1015,5 hPa 0,0 mm 0,0 km/h (0 Bft) E 83 0 min 0,000 mm 0 W/m 6,4 C 13,8 C 0,0 km/h (0 Bft)
30/05/2020 01:50 13,8 C 59 % 1015,6 hPa 0,0 mm 0,0 km/h (0 Bft) E 83 0 min 0,000 mm 0 W/m 5,9 C 13,8 C 0,0 km/h (0 Bft)
30/05/2020 01:45 14,0 C 59 % 1015,6 hPa 0,0 mm 0,0 km/h (0 Bft) E 83 0 min 0,000 mm 0 W/m 6,1 C 14,0 C 0,0 km/h (0 Bft)
30/05/2020 01:40 14,1 C 61 % 1015,6 hPa 0,0 mm 0,0 km/h (0 Bft) E 83 0 min 0,000 mm 0 W/m 6,7 C 14,1 C 0,0 km/h (0 Bft)
30/05/2020 01:35 14,2 C 60 % 1015,6 hPa 0,0 mm 0,0 km/h (0 Bft) E 83 0 min 0,000 mm 0 W/m 6,5 C 14,2 C 0,0 km/h (0 Bft)
30/05/2020 01:30 14,4 C 58 % 1015,6 hPa 0,0 mm 0,0 km/h (0 Bft) E 83 0 min 0,000 mm 0 W/m 6,2 C 14,4 C 0,0 km/h (0 Bft)
30/05/2020 01:25 14,6 C 57 % 1015,5 hPa 0,0 mm 0,0 km/h (0 Bft) E 83 0 min 0,000 mm 0 W/m 6,2 C 14,6 C 0,0 km/h (0 Bft)
30/05/2020 01:20 14,9 C 56 % 1015,5 hPa 0,0 mm 0,0 km/h (0 Bft) E 83 0 min 0,000 mm 0 W/m 6,2 C 14,9 C 0,0 km/h (0 Bft)
30/05/2020 01:15 15,1 C 56 % 1015,5 hPa 0,0 mm 0,0 km/h (0 Bft) E 83 0 min 0,000 mm 0 W/m 6,4 C 15,1 C 0,0 km/h (0 Bft)
30/05/2020 01:10 15,3 C 55 % 1015,5 hPa 0,0 mm 0,0 km/h (0 Bft) E 83 0 min 0,000 mm 0 W/m 6,3 C 15,3 C 0,0 km/h (0 Bft)
30/05/2020 01:05 15,5 C 56 % 1015,4 hPa 0,0 mm 0,0 km/h (0 Bft) E 83 0 min 0,000 mm 0 W/m 6,8 C 15,5 C 0,0 km/h (0 Bft)
30/05/2020 01:00 15,7 C 55 % 1015,4 hPa 0,0 mm 0,0 km/h (0 Bft) E 83 0 min 0,051 mm 0 W/m 6,7 C 15,7 C 0,0 km/h (0 Bft)
30/05/2020 00:55 16,0 C 54 % 1015,5 hPa 0,0 mm 0,0 km/h (0 Bft) E 83 0 min 0,000 mm 0 W/m 6,7 C 16,0 C 0,0 km/h (0 Bft)
30/05/2020 00:50 16,4 C 53 % 1015,5 hPa 0,0 mm 1,2 km/h (1 Bft) E 83 0 min 0,000 mm 0 W/m 6,8 C 16,4 C 6,4 km/h (2 Bft)
30/05/2020 00:45 16,7 C 52 % 1015,5 hPa 0,0 mm 2,4 km/h (1 Bft) E 83 0 min 0,000 mm 0 W/m 6,8 C 16,7 C 6,4 km/h (2 Bft)
30/05/2020 00:40 16,8 C 51 % 1015,4 hPa 0,0 mm 2,8 km/h (1 Bft) E 82 0 min 0,000 mm 0 W/m 6,6 C 16,8 C 8,0 km/h (2 Bft)
30/05/2020 00:35 16,8 C 51 % 1015,4 hPa 0,0 mm 4,0 km/h (1 Bft) E-NE 69 0 min 0,000 mm 0 W/m 6,6 C 16,8 C 8,0 km/h (2 Bft)
30/05/2020 00:30 17,1 C 51 % 1015,5 hPa 0,0 mm 3,9 km/h (1 Bft) E 91 0 min 0,000 mm 0 W/m 6,9 C 17,1 C 6,4 km/h (2 Bft)
30/05/2020 00:25 17,2 C 51 % 1015,4 hPa 0,0 mm 2,4 km/h (1 Bft) E-NE 64 0 min 0,000 mm 0 W/m 7,0 C 17,2 C 8,0 km/h (2 Bft)
30/05/2020 00:20 17,4 C 49 % 1015,4 hPa 0,0 mm 2,1 km/h (1 Bft) E-NE 76 0 min 0,000 mm 0 W/m 6,6 C 17,4 C 6,4 km/h (2 Bft)
30/05/2020 00:15 17,6 C 49 % 1015,4 hPa 0,0 mm 4,8 km/h (1 Bft) E-NE 76 0 min 0,000 mm 0 W/m 6,8 C 17,6 C 8,0 km/h (2 Bft)
30/05/2020 00:10 17,4 C 49 % 1015,5 hPa 0,0 mm 3,6 km/h (1 Bft) E-NE 60 0 min 0,000 mm 0 W/m 6,6 C 17,4 C 8,0 km/h (2 Bft)
30/05/2020 00:05 17,8 C 48 % 1015,5 hPa 0,0 mm 1,3 km/h (1 Bft) E-NE 74 0 min 0,000 mm 0 W/m 6,6 C 17,8 C 6,4 km/h (2 Bft)
30/05/2020 00:00 18,2 C 48 % 1015,5 hPa 0,0 mm 2,0 km/h (1 Bft) E-NE 75 0 min 0,000 mm 0 W/m 7,0 C 18,2 C 6,4 km/h (2 Bft)
_ Min-Heure 06:30 17:35 19:25 - 00:55 - - - - - 01:50 06:30 00:55
Minimum _ 9,5 C 37 % 1011,8 hPa - 0,0 km/h (0 Bft) - - - - - 5,9 C 9,5 C 0,0 km/h (0 Bft)
_ Max-Heure 16:40 06:35 07:50 00:00 18:15 - - 07:50 15:00 14:35 13:45 16:25 18:10
Maximum _ 28,7 C 84 % 1015,8 hPa 0,0 mm 9,6 km/h
E-NE (2 Bft)
- - 5 min 0,635 mm 949 W/m 16,9 C 28,6 C 20,9 km/h
N-NE (4 Bft)
Moyenne _ 20,2 C 58 % 1014,4 hPa #0,0 mm 3,3 km/h (1 Bft) E-NE - #11:05 h #5,232 mm 490 W/m 11,2 C 20,2 C 7,4 km/h (2 Bft)